{"data":{"norad_id":56924,"intl_designator":"2023-083BA","name":"STARLINK-5731","alt_names":[],"object_type":"PAYLOAD","status":"ACTIVE","operator":null,"country":"US","launch_date":"2023-06-12","launch_site_code":"AFETR","launch_vehicle":null,"mission":null,"orbit_class":"UNKNOWN","rcs_meters":null,"size_class":null,"mass_kg":null,"dimensions":null,"purposes":["comms"],"wikipedia_slug":null,"has_3d_model":false,"image_url":null,"decayed_at":null,"tle_current":{"epoch":"2026-09-20T03:17:17.836800Z","epoch_age_seconds":148987,"freshness":"FRESH","line1":"1 56924U 23083BA  26263.13701200 -.00000112  00000+0  54651-5 0  9995","line2":"2 56924  43.0050  52.7712 0001738 277.9272  82.1382 15.27574146181645","mean_motion":15.27574146,"eccentricity":0.0001738,"inclination_deg":43.005,"raan_deg":52.7712,"arg_perigee_deg":277.9272,"mean_anomaly_deg":82.1382,"bstar":5.4651e-6,"rev_number":18164,"period_min":94.267109964559,"perigee_km":481.87414788756,"apogee_km":484.25910226764,"semimajor_km":6861.2036250776,"source":"CELESTRAK","updated_at":"2026-09-21T09:00:33.546795Z"}}}